EW4504 Weather Reports


time (UTC)temp
C
wind
direction
speed
KPH
gust
KPH
rain 1hr
cm
rain 24hr
cm
rain mn
cm
humidity
%
barometer
mb
20260503023531 12 0 0.0 0.0 0.00 0.00 0.00 57 1016.2
20260503023040 12 0 0.0 0.0 0.00 0.00 0.00 55 1016.1
20260503022530 12 0 0.0 0.0 0.00 0.00 0.00 55 1016.0
20260503022032 12 0 0.0 0.0 0.00 0.00 0.00 54 1016.0
20260503021548 12 0 0.0 0.0 0.00 0.00 0.00 53 1015.9
20260503021032 13 0 0.0 0.0 0.00 0.00 0.00 52 1015.9
20260503020530 13 0 0.0 0.0 0.00 0.00 0.00 52 1015.8
20260503020055 13 0 0.0 0.0 0.00 0.00 0.00 52 1015.6
20260503015529 13 0 0.0 0.0 0.00 0.00 0.00 51 1015.6
20260503015031 13 0 0.0 0.0 0.00 0.00 0.00 49 1015.6
20260503014546 13 0 0.0 0.0 0.00 0.00 0.00 49 1015.5
20260503014031 14 0 0.0 0.0 0.00 0.00 0.00 48 1015.4
20260503013533 14 0 0.0 0.0 0.00 0.00 0.00 47 1015.3
20260503013043 14 0 0.0 0.0 0.00 0.00 0.00 47 1015.3
20260503012532 15 0 0.0 3.2 0.00 0.00 0.00 46 1015.3
20260503012031 15 0 0.0 3.2 0.00 0.00 0.00 46 1015.2
20260503011600 15 0 0.0 4.8 0.00 0.00 0.00 45 1015.2
20260503011031 15 327 0.0 4.8 0.00 0.00 0.00 45 1015.2
20260503010530 15 327 1.6 6.4 0.00 0.00 0.00 44 1015.1
20260503010039 15 0 0.0 8.0 0.00 0.00 0.00 44 1015.0
20260503005531 15 327 3.2 9.7 0.00 0.00 0.00 44 1015.0
20260503005034 15 343 3.2 11.3 0.00 0.00 0.00 44 1014.9
20260503004543 15 312 4.8 11.3 0.00 0.00 0.00 43 1014.7
20260503004031 15 315 3.2 9.7 0.00 0.00 0.00 43 1014.7
20260503003530 15 337 3.2 9.7 0.00 0.00 0.00 42 1014.6
20260503003041 16 338 3.2 12.9 0.00 0.00 0.00 43 1014.5
20260503002531 16 329 3.2 14.5 0.00 0.00 0.00 42 1014.5
20260503002031 16 325 4.8 16.1 0.00 0.00 0.00 41 1014.5
20260503001557 16 338 6.4 16.1 0.00 0.00 0.00 41 1014.5
20260503001032 16 26 6.4 24.1 0.00 0.00 0.00 41 1014.3
20260503000533 16 333 6.4 24.1 0.00 0.00 0.00 41 1014.3
20260503000109 16 331 8.0 19.3 0.00 0.00 0.00 41 1014.3
20260502235528 16 347 6.4 16.1 0.00 0.00 0.00 41 1014.2
20260502235032 16 9 3.2 16.1 0.00 0.00 0.00 40 1014.0
20260502234542 17 344 6.4 16.1 0.00 0.00 0.00 40 1013.9
20260502234030 17 346 8.0 14.5 0.00 0.00 0.00 40 1013.9
20260502233530 17 342 6.4 16.1 0.00 0.00 0.00 40 1013.8
20260502233042 17 355 6.4 19.3 0.00 0.00 0.00 40 1013.8
20260502232534 17 355 8.0 20.9 0.00 0.00 0.00 39 1013.8
20260502232030 17 324 9.7 30.6 0.00 0.00 0.00 39 1013.7
20260502231556 17 312 12.9 30.6 0.00 0.00 0.00 39 1013.7
20260502231031 17 323 8.0 19.3 0.00 0.00 0.00 39 1013.6
20260502230531 17 315 8.0 19.3 0.00 0.00 0.00 38 1013.6
20260502230041 17 317 8.0 24.1 0.00 0.00 0.00 38 1013.6
20260502225530 17 352 14.5 24.1 0.00 0.00 0.00 37 1013.4
20260502225034 17 336 8.0 22.5 0.00 0.00 0.00 38 1013.5
20260502224540 17 317 9.7 25.7 0.00 0.00 0.00 37 1013.5
20260502224028 17 5 12.9 25.7 0.00 0.00 0.00 37 1013.5
20260502223528 18 355 9.7 25.7 0.00 0.00 0.00 37 1013.5
20260502223035 18 292 4.8 24.1 0.00 0.00 0.00 37 1013.5
20260502222531 18 284 9.7 19.3 0.00 0.00 0.00 36 1013.6
20260502222031 18 319 9.7 22.5 0.00 0.00 0.00 36 1013.7
20260502221546 17 328 8.0 25.7 0.00 0.00 0.00 36 1013.6
20260502221031 18 342 9.7 35.4 0.00 0.00 0.00 35 1013.6
20260502220532 18 273 17.7 35.4 0.00 0.00 0.00 35 1013.6
20260502220047 18 350 12.9 35.4 0.00 0.00 0.00 35 1013.5
20260502215532 18 321 11.3 35.4 0.00 0.00 0.00 35 1013.3
20260502215032 18 295 14.5 35.4 0.00 0.00 0.00 34 1013.3
20260502214541 18 306 14.5 30.6 0.00 0.00 0.00 34 1013.2
20260502214030 18 350 8.0 30.6 0.00 0.00 0.00 34 1013.0
20260502213531 18 319 11.3 30.6 0.00 0.00 0.00 33 1012.9
20260502213041 18 330 11.3 33.8 0.00 0.00 0.00 34 1012.8
20260502212531 18 336 11.3 33.8 0.00 0.00 0.00 35 1012.9
20260502212032 18 329 9.7 27.4 0.00 0.00 0.00 34 1012.9
20260502211544 18 320 12.9 25.7 0.00 0.00 0.00 33 1012.8
20260502211030 18 297 9.7 24.1 0.00 0.00 0.00 34 1012.8
20260502210534 19 338 9.7 24.1 0.00 0.00 0.00 34 1012.7
20260502210042 19 317 6.4 24.1 0.00 0.00 0.00 35 1012.6
20260502205531 19 334 11.3 24.1 0.00 0.00 0.00 34 1012.5
20260502205030 19 211 9.7 24.1 0.00 0.00 0.00 33 1012.4
20260502204545 20 298 8.0 24.1 0.00 0.00 0.00 34 1012.2
20260502204034 20 220 8.0 20.9 0.00 0.00 0.00 33 1012.3
20260502203531 19 331 3.2 22.5 0.00 0.00 0.00 34 1012.4
20260502203046 19 336 8.0 32.2 0.00 0.00 0.00 34 1012.3
20260502202534 20 311 4.8 32.2 0.00 0.00 0.00 35 1012.4
20260502202030 19 360 11.3 32.2 0.00 0.00 0.00 35 1012.4
20260502201547 19 245 9.7 27.4 0.00 0.00 0.00 36 1012.5
20260502201031 19 38 8.0 29.0 0.00 0.00 0.00 38 1012.4
20260502200531 19 352 12.9 29.0 0.00 0.00 0.00 38 1012.3
20260502200047 19 26 12.9 29.0 0.00 0.00 0.00 38 1012.5
20260502195530 20 319 9.7 16.1 0.00 0.00 0.00 40 1012.4
20260502195030 20 313 6.4 24.1 0.00 0.00 0.00 42 1012.4
20260502194549 19 12 8.0 25.7 0.00 0.00 0.00 41 1012.3
20260502194031 20 333 11.3 25.7 0.00 0.00 0.00 41 1012.4
20260502193531 20 313 4.8 20.9 0.00 0.00 0.00 43 1012.3
20260502193057 19 319 8.0 27.4 0.00 0.00 0.00 43 1012.3
20260502192531 19 305 6.4 27.4 0.00 0.00 0.00 43 1012.4
20260502192030 19 300 9.7 27.4 0.00 0.00 0.00 44 1012.5
20260502191549 20 245 6.4 20.9 0.00 0.00 0.00 45 1012.5
20260502191032 20 296 8.0 29.0 0.00 0.00 0.00 45 1012.6
20260502190533 19 321 11.3 29.0 0.00 0.00 0.00 45 1012.7
20260502190040 19 317 8.0 22.5 0.00 0.00 0.00 45 1012.5
20260502185531 20 338 8.0 24.1 0.00 0.00 0.00 45 1012.6
20260502185028 20 242 8.0 24.1 0.00 0.00 0.00 46 1012.4
20260502184542 20 291 6.4 14.5 0.00 0.00 0.00 46 1012.4
20260502184029 20 287 6.4 20.9 0.00 0.00 0.00 46 1012.3
20260502183532 19 271 9.7 20.9 0.00 0.00 0.00 46 1012.4
20260502183036 20 324 9.7 19.3 0.00 0.00 0.00 47 1012.4
20260502182529 20 292 6.4 20.9 0.00 0.00 0.00 47 1012.4
20260502182028 19 263 6.4 25.7 0.00 0.00 0.00 48 1012.4
20260502181548 19 198 4.8 25.7 0.00 0.00 0.00 48 1012.4
20260502181029 20 332 8.0 20.9 0.00 0.00 0.00 47 1012.4
20260502180530 19 293 6.4 20.9 0.00 0.00 0.00 49 1012.4
20260502164028 18 287 4.8 17.7 0.00 0.00 0.00 56 1013.1
20260502163528 18 333 6.4 17.7 0.00 0.00 0.00 57 1013.1
20260502163044 18 246 8.0 17.7 0.00 0.00 0.00 58 1013.1
20260502162529 17 245 4.8 17.7 0.00 0.00 0.00 58 1013.1
20260502162028 18 225 6.4 17.7 0.00 0.00 0.00 57 1013.0
20260502161603 18 308 6.4 17.7 0.00 0.00 0.00 58 1013.0
20260502161038 18 17 4.8 17.7 0.00 0.00 0.00 58 1013.1
20260502160530 17 332 6.4 17.7 0.00 0.00 0.00 58 1013.2
20260502160103 18 331 9.7 17.7 0.00 0.00 0.00 58 1013.1
20260502152029 16 306 1.6 12.9 0.00 0.00 0.00 64 1013.4
20260502151542 15 42 3.2 11.3 0.00 0.00 0.00 64 1013.4
20260502151028 15 360 3.2 12.9 0.00 0.00 0.00 65 1013.3
20260502150529 15 313 3.2 12.9 0.00 0.00 0.00 65 1013.4
20260502130528 12 0 1.6 8.0 0.00 0.00 0.00 70 1012.8
20260502123529 12 0 1.6 8.0 0.00 0.00 0.00 69 1012.0
20260502123111 12 297 0.0 4.8 0.00 0.00 0.00 69 1012.1
20260502122528 12 294 1.6 4.8 0.00 0.00 0.00 70 1012.4
20260502122032 12 0 0.0 4.8 0.00 0.00 0.00 70 1012.7
20260502121543 12 0 0.0 4.8 0.00 0.00 0.00 70 1012.3
20260502121029 12 258 1.6 4.8 0.00 0.00 0.00 70 1012.2
20260502120532 12 223 0.0 3.2 0.00 0.00 0.00 70 1012.2
20260502115530 12 0 0.0 4.8 0.00 0.00 0.00 70 1012.3
20260502115029 12 0 0.0 4.8 0.00 0.00 0.00 70 1012.3
20260502114537 12 0 1.6 4.8 0.00 0.00 0.00 69 1011.8
20260502114028 12 220 1.6 4.8 0.00 0.00 0.00 69 1011.6
20260502113528 12 0 0.0 4.8 0.00 0.00 0.00 70 1012.1
20260502113043 12 218 0.0 4.8 0.00 0.00 0.00 69 1012.2
20260502112530 12 288 1.6 4.8 0.00 0.00 0.00 69 1012.1
20260502112027 12 0 0.0 6.4 0.00 0.00 0.00 70 1012.5
20260502111540 12 274 0.0 6.4 0.00 0.00 0.00 70 1012.3
20260502111030 12 273 1.6 4.8 0.00 0.00 0.00 71 1012.4
20260502110529 12 0 0.0 4.8 0.00 0.00 0.00 72 1012.7
20260502110048 12 282 0.0 4.8 0.00 0.00 0.00 72 1012.5
20260502105528 12 284 0.0 6.4 0.00 0.00 0.00 72 1012.3
20260502105029 12 286 1.6 6.4 0.00 0.00 0.00 72 1012.2
20260502104537 12 290 3.2 6.4 0.00 0.00 0.00 72 1012.1
20260502104029 12 314 0.0 3.2 0.00 0.00 0.00 72 1011.8
20260502103529 12 316 1.6 3.2 0.00 0.00 0.00 72 1011.8
20260502103035 12 0 0.0 3.2 0.00 0.00 0.00 72 1011.7
20260502102528 12 316 0.0 1.6 0.00 0.00 0.00 72 1011.6
20260502102035 12 0 0.0 3.2 0.00 0.00 0.00 72 1011.7
20260502101550 13 0 0.0 4.8 0.00 0.00 0.00 72 1011.5
20260502101027 13 316 0.0 4.8 0.00 0.00 0.00 72 1011.4
20260502100527 13 342 1.6 9.7 0.00 0.00 0.00 72 1011.0
20260502091027 13 320 1.6 9.7 0.00 0.00 0.00 74 1011.6
20260502090528 13 315 3.2 8.0 0.00 0.00 0.00 75 1011.6
20260502071032 13 0 0.0 4.8 0.00 0.00 0.00 81 1011.9
20260502070532 13 296 1.6 4.8 0.00 0.00 0.00 81 1012.1
20260502070042 13 0 0.0 3.2 0.00 0.00 0.00 82 1012.0
20260502065530 13 0 0.0 3.2 0.00 0.00 0.00 82 1012.0
20260502065027 13 0 0.0 3.2 0.00 0.00 0.00 82 1012.4
20260502064543 13 0 0.0 3.2 0.00 0.00 0.00 81 1012.4
20260502064031 13 0 0.0 3.2 0.00 0.00 0.00 81 1012.3
20260502063527 13 0 0.0 1.6 0.00 0.00 0.00 82 1012.6
20260502063052 13 0 0.0 0.0 0.00 0.00 0.00 82 1012.7
20260502062527 14 0 0.0 3.2 0.00 0.00 0.00 82 1012.7
20260502062026 14 0 0.0 3.2 0.00 0.00 0.00 82 1012.6
20260502061537 14 0 0.0 3.2 0.00 0.00 0.00 82 1012.6
20260502061030 14 294 0.0 3.2 0.00 0.00 0.00 81 1012.6
20260502060533 14 0 0.0 4.8 0.00 0.00 0.00 81 1012.7
20260502060044 14 0 0.0 4.8 0.00 0.00 0.00 81 1012.8
20260502055530 14 0 0.0 0.0 0.00 0.00 0.00 81 1012.7
20260502055032 14 0 0.0 0.0 0.00 0.00 0.00 80 1012.8
20260502054540 14 0 0.0 0.0 0.00 0.00 0.00 80 1012.7
20260502054030 14 0 0.0 0.0 0.00 0.00 0.00 80 1012.7
20260502053530 15 0 0.0 0.0 0.00 0.00 0.00 80 1012.7
20260502053047 15 0 0.0 0.0 0.00 0.00 0.00 78 1012.6
20260502052529 15 0 0.0 0.0 0.00 0.00 0.00 78 1012.5
20260502052030 15 0 0.0 1.6 0.00 0.00 0.00 78 1012.4
20260502051548 15 0 0.0 1.6 0.00 0.00 0.00 77 1012.7
20260502051030 15 0 0.0 1.6 0.00 0.00 0.00 77 1012.8
20260502050530 15 0 0.0 3.2 0.00 0.00 0.00 75 1012.8
20260502050043 15 0 0.0 3.2 0.00 0.00 0.00 74 1012.7
20260502045530 15 0 0.0 3.2 0.00 0.00 0.00 73 1012.7
20260502045033 15 294 0.0 4.8 0.00 0.00 0.00 72 1012.7
20260502044542 15 294 0.0 8.0 0.00 0.00 0.00 71 1012.8
20260502044029 15 0 1.6 12.9 0.00 0.00 0.00 71 1012.8
20260502043530 15 296 1.6 12.9 0.00 0.00 0.00 71 1012.7
20260502043046 15 318 4.8 12.9 0.00 0.00 0.00 71 1012.6
20260502042529 15 325 1.6 9.7 0.00 0.00 0.00 70 1012.7
20260502042032 15 333 3.2 9.7 0.00 0.00 0.00 70 1012.9
20260502041552 15 337 1.6 9.7 0.00 0.00 0.00 70 1013.0
20260502041027 15 331 3.2 8.0 0.00 0.00 0.00 70 1013.1
20260502040530 15 312 3.2 6.4 0.00 0.00 0.00 71 1013.2
20260502040046 15 306 0.0 8.0 0.00 0.00 0.00 71 1013.2
20260502035529 15 318 1.6 8.0 0.00 0.00 0.00 71 1013.3
20260502035030 15 319 3.2 8.0 0.00 0.00 0.00 72 1013.3
20260502034541 15 323 3.2 6.4 0.00 0.00 0.00 72 1013.3
20260502034029 15 331 3.2 6.4 0.00 0.00 0.00 73 1013.3
20260502033530 16 0 1.6 6.4 0.00 0.00 0.00 73 1013.3
20260502033046 16 303 0.0 3.2 0.00 0.00 0.00 73 1013.4
20260502032529 16 0 0.0 4.8 0.00 0.00 0.00 73 1013.4
20260502032029 16 304 1.6 6.4 0.00 0.00 0.00 73 1013.5
20260502031539 16 306 3.2 6.4 0.00 0.00 0.00 73 1013.6
20260502031030 15 0 1.6 6.4 0.00 0.00 0.00 72 1013.6
20260502030530 16 302 1.6 4.8 0.00 0.00 0.00 73 1013.6
20260502030040 16 281 1.6 4.8 0.00 0.00 0.00 74 1013.6
20260502025532 16 281 0.0 3.2 0.00 0.00 0.00 73 1013.5
20260502025033 16 0 0.0 3.2 0.00 0.00 0.00 73 1013.6
20260502024555 16 0 0.0 3.2 0.00 0.00 0.00 73 1013.6
20260502024032 16 281 0.0 3.2 0.00 0.00 0.00 73 1013.5